Regional Weather Roundup
Issued by NWS

Home | Current Version | Previous Version | Graphics & Text | Print | Product List | Glossary On
Versions: 1 2 3 4 5 6 7 8 9 10 11 12 13 14 15 16 17 18 19 20 21 22 23 24 25 26 27 28 29 30 31 32 33 34 35 36 37 38 39 40 41 42 43 44 45 46 47 48 49 50
000
ASUS44 KMEG 241110
RWRTN
TENNESSEE HOURLY STATE WEATHER ROUNDUP
NATIONAL WEATHER SERVICE MEMPHIS TN
500 AM CST FRI FEB 24 2017

TNZ002-004-019-021-049-052-054-088>092-241200-
WEST TENNESSEE

CITY           SKY/WX    TMP DP  RH WIND       PRES   REMARKS
MEMPHIS INTL   CLEAR     62  56  80 S12       29.67S
NWS MEMPHIS      N/A     62 N/A N/A MISG        N/A
JACKSON        CLEAR     63  58  83 S13       29.68R
UNION CITY     CLEAR     61  61 100 S13       29.63S
PARIS          CLEAR     57  54  88 S8        29.67S
HUNTINGDON     PTCLDY    61  57  88 S10       29.67S
$$

TNZ008-025-027-028-033-062-065-066-241200-
NORTH MIDDLE TENNESSEE

CITY           SKY/WX    TMP DP  RH WIND       PRES   REMARKS
NASHVILLE      PTCLDY    63  55  75 S9        29.75R
PORTLAND       CLEAR     61  55  82 S13       29.74R
CLARKSVILLE    CLEAR     64  55  72 S10       29.69F
SMYRNA         CLEAR     61  55  81 S8        29.77R
COOKEVILLE     PTCLDY    61  52  72 S7        29.79S
GALLATIN       CLEAR     63  55  77 S5        29.78R
CROSSVILLE     CLEAR     59  49  69 S12G20    29.85S
$$

TNZ061-075-076-078-094-096-097-241200-
SOUTH MIDDLE TENNESSEE

CITY           SKY/WX    TMP DP  RH WIND       PRES   REMARKS
FAYETTEVILLE   CLOUDY    61  55  82 S9        29.80S
TULLAHOMA      CLEAR     61  54  77 S8        29.80S
WINCHESTER     CLEAR     57  54  88 S7        29.82S
MCMINNVILLE    CLEAR     64  55  72 S9        29.79S
COLUMBIA       MOCLDY    64  64 100 S14       29.74S
SHELBYVILLE    CLEAR     63  57  82 S8        29.79R
$$

TNZ017-018-042-046-047-241200-
NORTHEAST TENNESSEE

CITY           SKY/WX    TMP DP  RH WIND       PRES   REMARKS
TRI CITIES     PTCLDY    45  44  97 CALM      29.88R
ELIZABETHTON   PTCLDY    48  46  93 E7        29.89R
$$

TNZ012-013-036-069-073-074-241200-
CENTRAL EAST TENNESSEE

CITY           SKY/WX    TMP DP  RH WIND       PRES   REMARKS
KNOXVILLE      PTCLDY    51  49  92 NE3       29.85R
OAK RIDGE      PTCLDY    51  49  92 CALM      29.86R
GATLINBURG     CLEAR     45  45 100 CALM      29.86R
MORRISTOWN     CLEAR     52  48  87 CALM      29.85R
JACKSBORO      MOCLDY    59  50  72 CALM      29.86S
$$

TNZ083-085-099-241200-
SOUTHEAST TENNESSEE

CITY           SKY/WX    TMP DP  RH WIND       PRES   REMARKS
CHATTANOOGA    PTCLDY    52  48  86 CALM      29.86S
$$

SKY/WX REPORTED AS FAIR MEANS FEW OR NO CLOUDS BELOW
12 THOUSAND FEET.





USA.gov is the U.S. government's official web portal to all federal, state and local government web resources and services.